Weather reports worldwide

Advertisment
Santiago de Compostela/Labacolla, Spain (8042): temperature & dewpoint: 07.07.2020 07:00:00 - 13.07.2020 07:00:00 (CEST)Santiago de Compostela/Labacolla, Spain (8042): wind speed: 07.07.2020 07:00:00 - 13.07.2020 07:00:00 (CEST)Santiago de Compostela/Labacolla, Spain (8042): wind direction: 07.07.2020 07:00:00 - 13.07.2020 07:00:00 (CEST)Santiago de Compostela/Labacolla, Spain (8042): reduced air pressure: 07.07.2020 07:00:00 - 13.07.2020 07:00:00 (CEST)Santiago de Compostela/Labacolla, Spain (8042): visibility: 07.07.2020 07:00:00 - 13.07.2020 07:00:00 (CEST)
Date & Time tt [°C] td [°C] ff [km/h] ff [kn] dd ppp [hPa] vv [km]
13.07.2020 07:00:00 - - - - - - -
13.07.2020 06:00:00 14,4 11,5 4 2 NE 1022,0 30
13.07.2020 05:00:00 14,7 11,5 4 2 N 1021,7 30
13.07.2020 04:00:00 15,3 11,7 4 2 NNE 1021,6 30
13.07.2020 03:00:00 15,9 11,9 4 2 NNE 1021,6 30
13.07.2020 02:00:00 16,6 11,8 4 2 NNE 1021,6 30
13.07.2020 01:00:00 17,2 12,0 8 4 NNE 1021,7 30
13.07.2020 00:00:00 17,8 13,2 5 3 NNE 1021,6 30
12.07.2020 23:00:00 19,4 12,6 8 4 NNE 1020,7 30
12.07.2020 22:00:00 21,4 12,6 8 4 NE 1019,5 30
12.07.2020 21:00:00 24,0 14,1 8 4 ENE 1018,3 30
12.07.2020 20:00:00 26,6 15,9 8 4 NE 1017,2 40
12.07.2020 19:00:00 28,3 17,1 8 4 NE 1016,4 30
12.07.2020 18:00:00 29,7 17,1 5 3 NNE 1016,1 30
12.07.2020 17:00:00 30,5 18,3 8 4 NNE 1015,8 40
12.07.2020 16:00:00 30,1 17,0 11 6 N 1016,0 30
12.07.2020 15:00:00 28,9 16,8 5 3 E 1016,3 40
12.07.2020 14:00:00 27,5 17,4 5 3 ENE 1016,5 40
12.07.2020 13:00:00 26,0 17,6 8 4 ESE 1016,5 30
12.07.2020 12:00:00 24,1 16,9 8 4 E 1016,8 30
12.07.2020 11:00:00 22,0 16,4 5 3 E 1016,9 40
12.07.2020 10:00:00 19,5 15,8 4 2 E 1017,0 30
12.07.2020 09:00:00 17,2 14,7 4 2 ESE 1017,2 25
12.07.2020 08:00:00 15,5 14,0 0 0 N 1017,0 20
12.07.2020 07:00:00 15,1 13,8 4 2 E 1016,9 25
12.07.2020 06:00:00 15,5 13,9 4 2 NNE 1015,9 23
12.07.2020 05:00:00 16,2 14,0 8 4 N 1015,7 25
12.07.2020 04:00:00 16,5 14,3 4 2 NE 1015,8 25
12.07.2020 03:00:00 16,7 14,2 2 1 E 1015,9 28
12.07.2020 02:00:00 17,2 14,3 5 3 ENE 1016,2 25
12.07.2020 01:00:00 17,2 14,3 4 2 E 1016,0 30
12.07.2020 00:00:00 18,1 14,4 4 2 ENE 1015,9 30
11.07.2020 23:00:00 19,0 14,7 4 2 ENE 1015,8 30
11.07.2020 22:00:00 20,9 15,0 4 2 NNE 1014,9 30
11.07.2020 21:00:00 23,2 15,5 9 5 NNE 1014,0 30
11.07.2020 20:00:00 25,1 16,0 9 5 NNE 1013,9 30
11.07.2020 19:00:00 26,6 16,9 9 5 NNE 1013,8 30
11.07.2020 18:00:00 26,7 16,7 11 6 NNE 1014,1 30
11.07.2020 17:00:00 27,5 17,2 9 5 NNE 1014,1 40
11.07.2020 16:00:00 26,4 16,6 8 4 NE 1014,5 30
11.07.2020 15:00:00 26,1 16,1 8 4 NNE 1015,1 50
11.07.2020 14:00:00 24,9 15,9 8 4 NE 1015,8 50
11.07.2020 13:00:00 23,5 15,2 9 5 ENE 1016,3 30
11.07.2020 12:00:00 21,7 14,6 8 4 ENE 1016,8 30
11.07.2020 11:00:00 20,5 14,2 5 3 ENE 1017,1 50
11.07.2020 10:00:00 18,4 13,6 4 2 E 1017,4 30
11.07.2020 09:00:00 16,0 12,4 5 3 ENE 1018,0 30
11.07.2020 08:00:00 14,1 11,6 4 2 NE 1018,4 30
11.07.2020 07:00:00 13,5 11,4 5 3 NNE 1018,7 30
11.07.2020 06:00:00 13,2 11,3 8 4 NNE 1018,7 30
11.07.2020 05:00:00 13,3 11,4 8 4 NNE 1018,8 30
11.07.2020 04:00:00 13,5 11,2 8 4 NNE 1019,1 30
11.07.2020 03:00:00 13,5 11,4 8 4 NNE 1019,6 30
11.07.2020 02:00:00 13,9 11,6 8 4 NNE 1020,0 30
11.07.2020 01:00:00 14,5 11,1 9 5 NNE 1020,3 30
11.07.2020 00:00:00 15,2 11,1 8 4 NE 1020,3 30
10.07.2020 23:00:00 15,7 11,3 8 4 ENE 1020,1 30
10.07.2020 22:00:00 16,8 11,7 4 2 NE 1019,6 30
10.07.2020 21:00:00 19,3 12,9 8 4 NNE 1018,8 30
10.07.2020 20:00:00 20,3 13,4 16 9 N 1018,5 30
10.07.2020 19:00:00 21,2 13,9 18 10 NNE 1018,0 30
10.07.2020 18:00:00 21,9 14,0 18 10 NNE 1018,0 30
10.07.2020 17:00:00 22,8 15,1 21 11 N 1018,1 30
10.07.2020 16:00:00 21,6 14,5 18 10 NNE 1018,5 30
10.07.2020 15:00:00 22,0 15,8 13 7 NNE 1019,0 30
10.07.2020 14:00:00 21,1 14,9 13 7 NNE 1019,3 30
10.07.2020 13:00:00 19,8 14,1 16 9 N 1019,8 30
10.07.2020 12:00:00 18,4 13,7 9 5 NNE 1020,2 30
10.07.2020 11:00:00 16,9 13,3 9 5 NNE 1020,4 30
10.07.2020 10:00:00 15,6 13,0 5 3 NE 1020,6 30
10.07.2020 09:00:00 14,5 12,9 9 5 NNE 1020,6 9
10.07.2020 08:00:00 14,2 13,1 9 5 NNE 1020,7 10
10.07.2020 07:00:00 14,3 13,0 11 6 NNE 1020,2 14
10.07.2020 06:00:00 14,5 13,5 11 6 N 1020,0 14
10.07.2020 05:00:00 14,7 13,7 9 5 N 1020,1 10
10.07.2020 04:00:00 15,0 13,8 8 4 NNE 1020,1 23
10.07.2020 03:00:00 15,4 13,6 16 9 N 1020,3 30
10.07.2020 02:00:00 15,3 13,5 15 8 N 1021,2 25
10.07.2020 01:00:00 15,5 13,7 16 9 N 1021,4 24
10.07.2020 00:00:00 15,5 13,9 5 3 NNE 1021,1 30
09.07.2020 23:00:00 15,6 13,6 13 7 NNE 1020,7 25
09.07.2020 22:00:00 17,1 13,5 15 8 N 1020,1 30
09.07.2020 21:00:00 20,1 10,2 11 6 N 1019,1 30
09.07.2020 20:00:00 21,3 6,7 13 7 NNE 1018,8 35
09.07.2020 19:00:00 22,8 12,7 11 6 N 1018,4 30
09.07.2020 18:00:00 24,2 14,2 13 7 N 1018,4 30
09.07.2020 17:00:00 24,1 14,3 22 12 N 1018,7 35
09.07.2020 16:00:00 25,5 14,2 22 12 N 1018,5 30
09.07.2020 15:00:00 25,7 13,9 15 8 N 1018,5 30
09.07.2020 14:00:00 24,7 13,5 16 9 NNE 1018,7 30
09.07.2020 13:00:00 23,5 13,7 8 4 NNE 1018,8 30
09.07.2020 12:00:00 22,0 12,9 9 5 NNE 1019,1 30
09.07.2020 11:00:00 20,0 12,9 8 4 NNE 1019,4 25
09.07.2020 10:00:00 17,4 13,1 11 6 NNE 1019,6 30
09.07.2020 09:00:00 14,8 13,5 11 6 N 1019,6 10
09.07.2020 08:00:00 13,9 12,8 5 3 NNE 1019,5 10
09.07.2020 07:00:00 13,9 12,8 5 3 NNE 1019,2 15
09.07.2020 06:00:00 13,9 13,1 8 4 NNE 1018,8 8
09.07.2020 05:00:00 14,1 13,1 5 3 NNE 1018,5 30
09.07.2020 04:00:00 14,7 12,9 9 5 N 1018,0 18
09.07.2020 03:00:00 15,1 13,3 15 8 N 1017,9 17
09.07.2020 02:00:00 15,4 13,3 13 7 N 1018,3 30
09.07.2020 01:00:00 17,1 13,2 9 5 NNE 1017,9 27
09.07.2020 00:00:00 17,4 12,9 9 5 NNE 1017,7 30
08.07.2020 23:00:00 18,6 13,2 8 4 NNE 1016,5 30
08.07.2020 22:00:00 19,8 13,5 9 5 NNE 1014,9 28
08.07.2020 21:00:00 22,3 14,9 9 5 E 1015,7 14
08.07.2020 20:00:00 23,9 16,5 8 4 NE 1013,6 30
08.07.2020 19:00:00 25,4 17,2 8 4 NE 1013,3 30
08.07.2020 18:00:00 26,8 17,7 8 4 NNE 1012,9 18
08.07.2020 17:00:00 26,4 16,5 8 4 ENE 1013,2 30
08.07.2020 16:00:00 26,0 17,2 8 4 NE 1013,5 20
08.07.2020 15:00:00 25,6 17,6 8 4 NE 1013,5 22
08.07.2020 14:00:00 24,7 17,1 9 5 NE 1013,8 30
08.07.2020 13:00:00 23,6 17,3 9 5 NE 1013,8 30
08.07.2020 12:00:00 21,9 16,4 8 4 NNE 1014,1 29
08.07.2020 11:00:00 20,6 16,1 5 3 ENE 1014,2 30
08.07.2020 10:00:00 18,5 15,3 4 2 ENE 1014,2 30
08.07.2020 09:00:00 16,7 14,9 2 1 ENE 1014,4 18
08.07.2020 08:00:00 15,0 14,2 2 1 ENE 1014,5 9
08.07.2020 07:00:00 14,6 13,8 2 1 NNE 1014,4 10
08.07.2020 06:00:00 14,4 13,4 0 0 N 1014,3 9
08.07.2020 05:00:00 14,5 13,3 2 1 ESE 1014,5 12
08.07.2020 04:00:00 15,1 13,5 2 1 E 1014,6 15
08.07.2020 03:00:00 15,3 13,5 2 1 NE 1015,1 18
08.07.2020 02:00:00 16,3 13,6 2 1 NNE 1015,2 20
08.07.2020 01:00:00 17,1 13,8 2 1 ENE 1015,2 24
08.07.2020 00:00:00 18,2 14,3 4 2 E 1015,0 24
07.07.2020 23:00:00 20,3 14,9 4 2 NNE 1014,5 25
07.07.2020 22:00:00 22,8 15,4 9 5 NNE 1013,6 30
07.07.2020 21:00:00 26,0 15,7 8 4 NNE 1012,9 30
07.07.2020 20:00:00 28,0 16,9 8 4 NNE 1012,6 40
07.07.2020 19:00:00 29,0 17,0 9 5 NNE 1012,5 17
07.07.2020 18:00:00 29,8 18,3 9 5 N 1012,9 30
07.07.2020 17:00:00 29,8 18,0 8 4 NNE 1013,2 40
07.07.2020 16:00:00 29,6 17,5 4 2 E 1013,6 30
07.07.2020 15:00:00 28,4 17,1 8 4 E 1014,2 40
07.07.2020 14:00:00 26,6 16,2 5 3 NNE 1014,8 40
07.07.2020 13:00:00 25,2 16,4 5 3 ESE 1015,1 30
07.07.2020 12:00:00 22,3 15,1 8 4 ESE 1015,5 30
07.07.2020 11:00:00 20,4 15,0 8 4 E 1015,7 30
07.07.2020 10:00:00 17,9 13,6 8 4 E 1016,2 27
07.07.2020 09:00:00 15,8 13,0 5 3 E 1016,6 30
07.07.2020 08:00:00 14,0 12,4 4 2 E 1016,9 30
07.07.2020 07:00:00 13,5 11,9 4 2 E 1016,9 22

tt = temperature
td = dewpoint
ff = wind speed
dd = wind direction
ppp = reduced air pressure
vv = visibility

Next stations